Regional Weather Roundup
Issued by NWS Little Rock, AR

Home | Current Version | Previous Version | Graphics & Text | Print | Product List | Glossary On
Versions: 1 2 3 4 5 6 7 8 9 10 11 12 13 14 15 16 17 18 19 20 21 22 23 24 25 26 27 28 29 30 31 32 33 34 35 36 37 38 39 40 41 42 43 44 45 46 47 48 49 50
000
ASUS44 KLZK 270905
RWRLZK

WEATHER ROUNDUP FOR ARKANSAS
NATIONAL WEATHER SERVICE LITTLE ROCK AR
400 AM CDT MON APR 27 2015

NOTE: "FAIR" INDICATES FEW OR NO CLOUDS BELOW 12,000 FEET WITH NO
SIGNIFICANT WEATHER AND/OR OBSTRUCTIONS TO VISIBILITY.

ARZ001-003-010-029-271000-
NORTHWEST ARKANSAS

CITY           SKY/WX    TMP DP  RH WIND       PRES   REMARKS
FAYETTEVILLE   LGT RAIN  52  50  93 CALM      29.96R
FORT SMITH     LGT RAIN  56  49  77 E9        29.91F
HARRISON       CLOUDY    49  42  77 E8        29.97R
BENTONVILLE    CLOUDY    54  45  71 SE8       29.99R THUNDER
ROGERS         CLOUDY    53  45  74 SE5       29.99R
SILOAM SPGS    CLOUDY    54  43  66 E5        29.96F
HIGHFILL       TSTM      54  47  77 E8        29.96R
$$

ARZ004-005-016-271000-
NORTH CENTRAL ARKANSAS

CITY           SKY/WX    TMP DP  RH WIND       PRES   REMARKS
BATESVILLE     CLOUDY    52  39  62 NE6       29.94R
FLIPPIN        CLOUDY    50  41  71 NE3       29.96R
MTN HOME       CLOUDY    49  39  68 NE6       29.95R
$$

ARZ040-041-271000-
WEST CENTRAL ARKANSAS

CITY           SKY/WX    TMP DP  RH WIND       PRES   REMARKS
MENA           CLOUDY    55  52  88 E9        29.90F
MOUNT IDA      LGT RAIN  54  51  90 E3        29.90F
$$

ARZ009-017-025-026-028-271000-
NORTHEAST ARKANSAS

CITY           SKY/WX    TMP DP  RH WIND       PRES   REMARKS
CORNING          N/A     48  41  76 NE13      29.97R
JONESBORO      MOCLDY    50  41  71 NE13      29.92F
NEWPORT        CLOUDY    50  44  79 NE9       29.94R
WALNUT RIDGE   MOCLDY    50  39  66 NE12      29.94S
BLYTHEVILLE    CLEAR     50  42  74 NE13      29.94R
$$

ARZ022-023-033-042-044-271000-
CENTRAL ARKANSAS

CITY           SKY/WX    TMP DP  RH WIND       PRES   REMARKS
LITTLE ROCK    CLOUDY    57  49  74 N5        29.96R
N LITTLE ROCK    N/A     54  51  87 N3        29.96R
JACKSONVILLE   CLOUDY    54  49  81 W1        29.98R
SEARCY         CLOUDY    54  43  66 E5        29.99R
HOT SPRINGS    LGT RAIN  54  51  90 E8        29.93F
RUSSELLVILLE   CLOUDY    56  49  77 CALM      29.97R
$$

ARZ036-271000-
EAST ARKANSAS

CITY           SKY/WX    TMP DP  RH WIND       PRES   REMARKS
WEST MEMPHIS   CLOUDY    52  46  80 NE12      29.89F
$$

ARZ050-053-066-070-073-271000-
SOUTHWEST ARKANSAS

CITY           SKY/WX    TMP DP  RH WIND       PRES   REMARKS
ARKADELPHIA    RAIN      55  54  97 NE12      29.90F FOG
CAMDEN         CLOUDY    55  50  82 N10       29.89S
TEXARKANA      LGT RAIN  56  53  90 NE12      29.84S
EL DORADO      CLOUDY    57  50  77 NE14G21   29.87S
DE QUEEN       TSTM      55  53  93 SE8       29.91R FOG
$$

ARZ056-057-069-271000-
SOUTHEAST ARKANSAS

CITY           SKY/WX    TMP DP  RH WIND       PRES   REMARKS
PINE BLUFF     TSTM      56  51  84 W6        29.97R
STUTTGART      CLOUDY    55  48  76 NE5       29.95R
MONTICELLO     CLOUDY    58  50  75 N7        29.91R

$$




USA.gov is the U.S. government's official web portal to all federal, state and local government web resources and services.